When you browse on this site, cookies collect data to enhance your experience and personalize the content and advertising you see.
Visit our Privacy Policy to learn more. By continuing to use the site, you agree to this use of cookies and data.

Tiempo cada hora Mansa Konko

Hoy, 19 Septiembre, Sábado

Tiempo Temperatura Precipitaciones Viento Presión Humedad
00:00 +26°C° 5.3 mm 1 mps 758 mmHg 96%
01:00 +26°C° 5.3 mm 1 mps 758 mmHg 97%
02:00 +26°C° 5.3 mm 1 mps 758 mmHg 97%
03:00 +26°C° 5.1 mm 1 mps 758 mmHg 97%
04:00 +25°C° 5.1 mm 1 mps 758 mmHg 98%
05:00 +25°C° 5.1 mm 1 mps 758 mmHg 98%
06:00 +25°C° 2.6 mm 1 mps 758 mmHg 98%
07:00 +25°C° 2.6 mm 1 mps 759 mmHg 98%
08:00 +25°C° 2.6 mm 1 mps 760 mmHg 97%
09:00 +26°C° 0.5 mm 1 mps 759 mmHg 94%
10:00 +27°C° 0.5 mm 1 mps 759 mmHg 91%
11:00 +27°C° 0.5 mm 1 mps 759 mmHg 88%
12:00 +28°C° 0 mm 1 mps 758 mmHg 85%
13:00 +29°C° 0 mm 1 mps 758 mmHg 82%
14:00 +29°C° 0 mm 1 mps 757 mmHg 78%
15:00 +29°C° 0 mm 1 mps 757 mmHg 80%
16:00 +29°C° 0 mm 1 mps 757 mmHg 82%
17:00 +29°C° 0 mm 1 mps 758 mmHg 84%
18:00 +29°C° 0 mm 1 mps 758 mmHg 86%
19:00 +28°C° 0 mm 1 mps 759 mmHg 87%
20:00 +27°C° 0 mm 1 mps 760 mmHg 89%
21:00 +27°C° 0 mm 1 mps 760 mmHg 90%
22:00 +26°C° 0 mm 1 mps 760 mmHg 91%
23:00 +26°C° 0 mm 1 mps 760 mmHg 92%

Mañana, 20 Septiembre, Domingo

Tiempo Temperatura Precipitaciones Viento Presión Humedad
00:00 +26°C° 0 mm 1 mps 759 mmHg 93%
01:00 +25°C° 0 mm 1 mps 759 mmHg 93%
02:00 +25°C° 0 mm 2 mps 759 mmHg 94%
03:00 +25°C° 0 mm 1 mps 759 mmHg 94%
04:00 +24°C° 0 mm 1 mps 759 mmHg 93%
05:00 +24°C° 0 mm 1 mps 759 mmHg 93%
06:00 +25°C° 0 mm 1 mps 759 mmHg 90%
07:00 +26°C° 0 mm 1 mps 760 mmHg 86%
08:00 +28°C° 0 mm 1 mps 760 mmHg 83%
09:00 +29°C° 0 mm 1 mps 760 mmHg 78%
10:00 +30°C° 0 mm 1 mps 760 mmHg 73%
11:00 +32°C° 0 mm 1 mps 760 mmHg 68%
12:00 +32°C° 0 mm 1 mps 759 mmHg 66%
13:00 +33°C° 0 mm 1 mps 759 mmHg 64%
14:00 +34°C° 0 mm 1 mps 758 mmHg 62%
15:00 +33°C° 0 mm 1 mps 758 mmHg 65%
16:00 +32°C° 0 mm 1 mps 758 mmHg 69%
17:00 +32°C° 0 mm 1 mps 757 mmHg 73%
18:00 +30°C° 0 mm 2 mps 758 mmHg 77%
19:00 +29°C° 0 mm 2 mps 759 mmHg 82%
20:00 +28°C° 0 mm 2 mps 759 mmHg 86%
21:00 +27°C° 0 mm 2 mps 759 mmHg 88%
22:00 +27°C° 0 mm 2 mps 760 mmHg 90%
23:00 +27°C° 0 mm 1 mps 760 mmHg 91%

Pasado mañana, 21 Septiembre, Lunes

Tiempo Temperatura Precipitaciones Viento Presión Humedad
00:00 +26°C° 0 mm 1 mps 760 mmHg 92%
01:00 +26°C° 0 mm 1 mps 759 mmHg 93%
02:00 +26°C° 0 mm 1 mps 759 mmHg 93%
03:00 +26°C° 0.2 mm 1 mps 759 mmHg 94%
04:00 +26°C° 0.2 mm 1 mps 760 mmHg 94%
05:00 +26°C° 0.2 mm 1 mps 760 mmHg 94%
06:00 +25°C° 3.2 mm 3 mps 760 mmHg 94%
07:00 +25°C° 3.2 mm 4 mps 761 mmHg 94%
08:00 +24°C° 3.2 mm 6 mps 762 mmHg 94%
09:00 +25°C° 3.5 mm 5 mps 762 mmHg 95%
10:00 +23°C° 3.5 mm 4 mps 761 mmHg 95%
11:00 +24°C° 3.5 mm 3 mps 761 mmHg 96%
12:00 +26°C° 0 mm 2 mps 761 mmHg 89%
13:00 +27°C° 0 mm 2 mps 760 mmHg 82%
14:00 +29°C° 0 mm 2 mps 759 mmHg 75%
15:00 +29°C° 0 mm 2 mps 758 mmHg 77%
16:00 +29°C° 0 mm 1 mps 758 mmHg 79%
17:00 +29°C° 0 mm 1 mps 758 mmHg 81%
18:00 +28°C° 0 mm 1 mps 758 mmHg 83%
19:00 +27°C° 0 mm 1 mps 759 mmHg 84%
20:00 +26°C° 0 mm 1 mps 759 mmHg 85%
21:00 +26°C° 0 mm 1 mps 760 mmHg 86%
22:00 +25°C° 0 mm 1 mps 760 mmHg 87%
23:00 +25°C° 0 mm 1 mps 760 mmHg 88%

22 Septiembre, Martes

Tiempo Temperatura Precipitaciones Viento Presión Humedad
00:00 +25°C° 0.1 mm 1 mps 760 mmHg 88%
01:00 +25°C° 0.1 mm 1 mps 759 mmHg 89%
02:00 +24°C° 0.1 mm 1 mps 759 mmHg 90%
03:00 +24°C° 0.2 mm 1 mps 759 mmHg 91%
04:00 +24°C° 0.2 mm 1 mps 759 mmHg 92%
05:00 +24°C° 0.2 mm 1 mps 759 mmHg 93%
06:00 +25°C° 0 mm 1 mps 760 mmHg 91%
07:00 +26°C° 0 mm 1 mps 760 mmHg 90%
08:00 +27°C° 0 mm 1 mps 760 mmHg 88%
09:00 +29°C° 0 mm 1 mps 760 mmHg 84%
10:00 +30°C° 0 mm 1 mps 760 mmHg 80%
11:00 +31°C° 0 mm 2 mps 760 mmHg 76%
12:00 +32°C° 0 mm 2 mps 759 mmHg 72%
13:00 +34°C° 0 mm 2 mps 758 mmHg 68%
14:00 +35°C° 0 mm 3 mps 758 mmHg 64%
15:00 +35°C° 0 mm 3 mps 758 mmHg 67%
16:00 +34°C° 0 mm 2 mps 757 mmHg 71%
17:00 +32°C° 0 mm 2 mps 757 mmHg 74%
18:00 +31°C° 0.1 mm 3 mps 758 mmHg 79%
19:00 +30°C° 0.1 mm 3 mps 758 mmHg 85%
20:00 +28°C° 0.1 mm 4 mps 759 mmHg 91%
21:00 +28°C° 0 mm 3 mps 759 mmHg 91%
22:00 +28°C° 0 mm 3 mps 759 mmHg 91%
23:00 +27°C° 0 mm 3 mps 759 mmHg 91%

23 Septiembre, Miércoles

Tiempo Temperatura Precipitaciones Viento Presión Humedad
00:00 +27°C° 0 mm 3 mps 759 mmHg 92%
01:00 +27°C° 0 mm 3 mps 758 mmHg 93%
02:00 +26°C° 0 mm 2 mps 758 mmHg 94%
03:00 +26°C° 0 mm 2 mps 758 mmHg 95%
04:00 +26°C° 0 mm 2 mps 758 mmHg 96%
05:00 +26°C° 0 mm 2 mps 757 mmHg 97%
06:00 +27°C° 0 mm 3 mps 758 mmHg 94%
07:00 +28°C° 0 mm 3 mps 758 mmHg 90%
08:00 +29°C° 0 mm 4 mps 759 mmHg 86%
09:00 +30°C° 0 mm 3 mps 759 mmHg 81%
10:00 +33°C° 0 mm 3 mps 758 mmHg 75%
11:00 +34°C° 0 mm 2 mps 758 mmHg 69%
12:00 +35°C° 0 mm 3 mps 758 mmHg 67%
13:00 +35°C° 0 mm 3 mps 757 mmHg 65%
14:00 +36°C° 0 mm 3 mps 756 mmHg 63%
15:00 +35°C° 0 mm 3 mps 756 mmHg 69%
16:00 +33°C° 0 mm 4 mps 756 mmHg 75%
17:00 +32°C° 0 mm 4 mps 756 mmHg 81%
18:00 +30°C° 0 mm 4 mps 756 mmHg 84%
19:00 +29°C° 0 mm 4 mps 757 mmHg 86%
20:00 +28°C° 0 mm 4 mps 757 mmHg 89%
21:00 +27°C° 0 mm 3 mps 757 mmHg 91%
22:00 +27°C° 0 mm 3 mps 757 mmHg 93%
23:00 +26°C° 0 mm 2 mps 757 mmHg 95%

24 Septiembre, Jueves

Tiempo Temperatura Precipitaciones Viento Presión Humedad
00:00 +26°C° 0 mm 3 mps 757 mmHg 96%
01:00 +26°C° 0 mm 3 mps 757 mmHg 97%
02:00 +26°C° 0 mm 3 mps 756 mmHg 97%
03:00 +26°C° 0 mm 3 mps 756 mmHg 97%
04:00 +26°C° 0 mm 3 mps 756 mmHg 97%
05:00 +26°C° 0 mm 3 mps 756 mmHg 97%
06:00 +27°C° 0 mm 3 mps 757 mmHg 93%
07:00 +27°C° 0 mm 3 mps 757 mmHg 90%
08:00 +28°C° 0 mm 3 mps 757 mmHg 86%
09:00 +29°C° 0 mm 3 mps 757 mmHg 83%
10:00 +29°C° 0 mm 3 mps 757 mmHg 80%
11:00 +30°C° 0 mm 3 mps 757 mmHg 78%
12:00 +30°C° 0 mm 3 mps 756 mmHg 77%
13:00 +31°C° 0 mm 3 mps 756 mmHg 76%
14:00 +31°C° 0 mm 3 mps 755 mmHg 75%
15:00 +31°C° 0 mm 3 mps 755 mmHg 77%
16:00 +31°C° 0 mm 3 mps 755 mmHg 78%
17:00 +30°C° 0 mm 2 mps 755 mmHg 80%
18:00 +29°C° 0 mm 2 mps 756 mmHg 83%
19:00 +28°C° 0 mm 2 mps 756 mmHg 86%
20:00 +27°C° 0 mm 2 mps 757 mmHg 90%
21:00 +27°C° 0 mm 2 mps 757 mmHg 90%
22:00 +26°C° 0 mm 2 mps 757 mmHg 91%
23:00 +26°C° 0 mm 2 mps 757 mmHg 92%
Mostrar más